Meteo orario Goldyrevskiy

Oggi, 16 Aprile, Venerdi

Tempo Temperatura Precipitazioni Vento Pressione Umidità
00:00 +7°C° 0 mm 5 m/s 746 mm Hg 85%
01:00 +6°C° 0 mm 5 m/s 746 mm Hg 85%
02:00 +6°C° 0 mm 5 m/s 747 mm Hg 84%
03:00 +5°C° 0 mm 5 m/s 747 mm Hg 83%
04:00 +3°C° 0 mm 5 m/s 748 mm Hg 83%
05:00 +3°C° 0 mm 5 m/s 748 mm Hg 84%
06:00 +2°C° 0 mm 5 m/s 748 mm Hg 84%
07:00 +2°C° 0 mm 5 m/s 749 mm Hg 84%
08:00 +3°C° 0 mm 5 m/s 749 mm Hg 80%
09:00 +3°C° 0 mm 5 m/s 749 mm Hg 75%
10:00 +5°C° 0 mm 5 m/s 750 mm Hg 70%
11:00 +6°C° 0 mm 5 m/s 750 mm Hg 63%
12:00 +7°C° 0 mm 4 m/s 750 mm Hg 56%
13:00 +10°C° 0 mm 4 m/s 750 mm Hg 49%
14:00 +10°C° 0 mm 4 m/s 750 mm Hg 46%
15:00 +10°C° 0 mm 4 m/s 750 mm Hg 43%
16:00 +10°C° 0 mm 4 m/s 750 mm Hg 40%
17:00 +8°C° 0 mm 4 m/s 750 mm Hg 45%
18:00 +8°C° 0 mm 3 m/s 750 mm Hg 49%
19:00 +7°C° 0 mm 3 m/s 750 mm Hg 54%
20:00 +5°C° 0 mm 3 m/s 750 mm Hg 57%
21:00 +4°C° 0 mm 3 m/s 750 mm Hg 60%
22:00 +3°C° 0 mm 3 m/s 751 mm Hg 63%
23:00 +2°C° 0 mm 3 m/s 751 mm Hg 66%

Domani, 17 Aprile, Sabato

Tempo Temperatura Precipitazioni Vento Pressione Umidità
00:00 +1°C° 0 mm 3 m/s 751 mm Hg 68%
01:00 +1°C° 0 mm 3 m/s 751 mm Hg 70%
02:00 0°C° 0 mm 3 m/s 751 mm Hg 71%
03:00 +1°C° 0 mm 2 m/s 751 mm Hg 71%
04:00 -1°C° 0 mm 2 m/s 751 mm Hg 72%
05:00 0°C° 0 mm 3 m/s 751 mm Hg 68%
06:00 0°C° 0 mm 3 m/s 751 mm Hg 64%
07:00 +1°C° 0 mm 3 m/s 751 mm Hg 60%
08:00 +2°C° 0 mm 3 m/s 751 mm Hg 55%
09:00 +4°C° 0 mm 3 m/s 751 mm Hg 51%
10:00 +5°C° 0 mm 4 m/s 751 mm Hg 46%
11:00 +6°C° 0 mm 4 m/s 750 mm Hg 45%
12:00 +7°C° 0 mm 4 m/s 750 mm Hg 43%
13:00 +8°C° 0 mm 4 m/s 750 mm Hg 42%
14:00 +8°C° 0 mm 4 m/s 749 mm Hg 42%
15:00 +8°C° 0 mm 4 m/s 749 mm Hg 41%
16:00 +10°C° 0 mm 4 m/s 749 mm Hg 41%
17:00 +8°C° 0 mm 4 m/s 748 mm Hg 46%
18:00 +8°C° 0 mm 3 m/s 748 mm Hg 51%
19:00 +7°C° 0 mm 3 m/s 748 mm Hg 56%
20:00 +5°C° 0 mm 3 m/s 748 mm Hg 61%
21:00 +4°C° 0 mm 3 m/s 748 mm Hg 65%
22:00 +3°C° 0 mm 3 m/s 748 mm Hg 69%
23:00 +3°C° 0 mm 3 m/s 747 mm Hg 72%

Dopodomani, 18 Aprile, Domenica

Tempo Temperatura Precipitazioni Vento Pressione Umidità
00:00 +3°C° 0 mm 3 m/s 747 mm Hg 75%
01:00 +2°C° 0 mm 3 m/s 747 mm Hg 78%
02:00 +2°C° 0 mm 3 m/s 747 mm Hg 80%
03:00 +1°C° 0 mm 3 m/s 747 mm Hg 82%
04:00 0°C° 0 mm 4 m/s 747 mm Hg 85%
05:00 0°C° 0 mm 4 m/s 747 mm Hg 84%
06:00 +1°C° 0 mm 4 m/s 748 mm Hg 84%
07:00 +1°C° 0 mm 5 m/s 748 mm Hg 83%
08:00 +1°C° 0 mm 5 m/s 749 mm Hg 71%
09:00 +1°C° 0 mm 6 m/s 749 mm Hg 58%
10:00 +2°C° 0 mm 6 m/s 750 mm Hg 45%
11:00 +2°C° 0 mm 6 m/s 750 mm Hg 44%
12:00 +2°C° 0 mm 6 m/s 750 mm Hg 42%
13:00 +3°C° 0 mm 6 m/s 751 mm Hg 41%
14:00 +3°C° 0 mm 6 m/s 751 mm Hg 38%
15:00 +3°C° 0 mm 6 m/s 752 mm Hg 35%
16:00 +3°C° 0 mm 6 m/s 752 mm Hg 32%
17:00 +2°C° 0 mm 5 m/s 752 mm Hg 35%
18:00 +1°C° 0 mm 5 m/s 753 mm Hg 37%
19:00 0°C° 0 mm 5 m/s 753 mm Hg 39%
20:00 -1°C° 0 mm 4 m/s 754 mm Hg 42%
21:00 -2°C° 0 mm 4 m/s 754 mm Hg 45%
22:00 -2°C° 0 mm 4 m/s 755 mm Hg 48%
23:00 -3°C° 0 mm 4 m/s 755 mm Hg 48%

19 Aprile, Lunedi

Tempo Temperatura Precipitazioni Vento Pressione Umidità
00:00 -3°C° 0 mm 4 m/s 755 mm Hg 47%
01:00 -4°C° 0 mm 4 m/s 756 mm Hg 46%
02:00 -4°C° 0 mm 4 m/s 756 mm Hg 46%
03:00 -4°C° 0 mm 3 m/s 757 mm Hg 46%
04:00 -4°C° 0 mm 3 m/s 757 mm Hg 46%
05:00 -4°C° 0 mm 3 m/s 757 mm Hg 42%
06:00 -4°C° 0 mm 4 m/s 758 mm Hg 37%
07:00 -3°C° 0 mm 4 m/s 758 mm Hg 33%
08:00 -2°C° 0 mm 4 m/s 758 mm Hg 29%
09:00 -2°C° 0 mm 4 m/s 758 mm Hg 26%
10:00 -1°C° 0 mm 4 m/s 758 mm Hg 22%
11:00 0°C° 0 mm 4 m/s 758 mm Hg 23%
12:00 +1°C° 0 mm 4 m/s 758 mm Hg 23%
13:00 +3°C° 0 mm 4 m/s 758 mm Hg 24%
14:00 +3°C° 0 mm 3 m/s 758 mm Hg 24%
15:00 +3°C° 0 mm 3 m/s 757 mm Hg 25%
16:00 +3°C° 0 mm 3 m/s 757 mm Hg 25%
17:00 +4°C° 0 mm 2 m/s 757 mm Hg 29%
18:00 +3°C° 0 mm 2 m/s 757 mm Hg 34%
19:00 +2°C° 0 mm 2 m/s 757 mm Hg 38%
20:00 +1°C° 0 mm 2 m/s 758 mm Hg 40%
21:00 +2°C° 0 mm 1 m/s 758 mm Hg 41%
22:00 +1°C° 0 mm 1 m/s 758 mm Hg 43%
23:00 +1°C° 0 mm 1 m/s 758 mm Hg 43%

20 Aprile, Martedi

Tempo Temperatura Precipitazioni Vento Pressione Umidità
00:00 0°C° 0 mm 1 m/s 758 mm Hg 43%
01:00 0°C° 0 mm 1 m/s 758 mm Hg 44%
02:00 0°C° 0 mm 1 m/s 758 mm Hg 45%
03:00 0°C° 0 mm 1 m/s 758 mm Hg 45%
04:00 0°C° 0 mm 1 m/s 758 mm Hg 46%
05:00 0°C° 0 mm 1 m/s 758 mm Hg 44%
06:00 +1°C° 0 mm 1 m/s 758 mm Hg 41%
07:00 +2°C° 0 mm 1 m/s 758 mm Hg 39%
08:00 +2°C° 0 mm 2 m/s 758 mm Hg 36%
09:00 +3°C° 0 mm 2 m/s 758 mm Hg 32%
10:00 +4°C° 0 mm 2 m/s 758 mm Hg 29%
11:00 +5°C° 0 mm 2 m/s 757 mm Hg 29%
12:00 +6°C° 0 mm 2 m/s 757 mm Hg 28%
13:00 +7°C° 0 mm 2 m/s 757 mm Hg 28%
14:00 +7°C° 0 mm 2 m/s 756 mm Hg 28%
15:00 +8°C° 0 mm 2 m/s 756 mm Hg 28%
16:00 +8°C° 0 mm 2 m/s 755 mm Hg 28%
17:00 +7°C° 0 mm 2 m/s 755 mm Hg 33%
18:00 +6°C° 0 mm 2 m/s 755 mm Hg 38%
19:00 +6°C° 0 mm 2 m/s 755 mm Hg 43%
20:00 +6°C° 0 mm 1 m/s 755 mm Hg 44%
21:00 +5°C° 0 mm 1 m/s 755 mm Hg 46%
22:00 +4°C° 0 mm 1 m/s 755 mm Hg 48%
23:00 +3°C° 0 mm 1 m/s 755 mm Hg 49%

21 Aprile, Mercoledi

Tempo Temperatura Precipitazioni Vento Pressione Umidità
00:00 +3°C° 0 mm 1 m/s 755 mm Hg 50%
01:00 +2°C° 0 mm 0 m/s 755 mm Hg 51%
02:00 +1°C° 0 mm 0 m/s 755 mm Hg 51%
03:00 +1°C° 0 mm 0 m/s 755 mm Hg 51%
04:00 +1°C° 0 mm 0 m/s 755 mm Hg 52%
05:00 +2°C° 0 mm 0 m/s 755 mm Hg 50%
06:00 +3°C° 0 mm 0 m/s 755 mm Hg 48%
07:00 +4°C° 0 mm 0 m/s 755 mm Hg 46%
08:00 +5°C° 0 mm 0 m/s 755 mm Hg 43%
09:00 +7°C° 0 mm 0 m/s 755 mm Hg 39%
10:00 +9°C° 0 mm 1 m/s 755 mm Hg 36%
11:00 +10°C° 0 mm 1 m/s 755 mm Hg 35%
12:00 +11°C° 0 mm 1 m/s 755 mm Hg 33%
13:00 +12°C° 0 mm 1 m/s 755 mm Hg 31%
14:00 +12°C° 0 mm 1 m/s 754 mm Hg 30%
15:00 +13°C° 0 mm 2 m/s 754 mm Hg 30%
16:00 +13°C° 0 mm 2 m/s 754 mm Hg 30%
17:00 +12°C° 0 mm 2 m/s 754 mm Hg 34%
18:00 +10°C° 0 mm 2 m/s 754 mm Hg 39%
19:00 +11°C° 0 mm 1 m/s 754 mm Hg 43%
20:00 +9°C° 0 mm 1 m/s 754 mm Hg 46%
21:00 +7°C° 0 mm 2 m/s 754 mm Hg 50%
22:00 +6°C° 0 mm 2 m/s 754 mm Hg 53%
23:00 +6°C° 0 mm 2 m/s 754 mm Hg 54%
Mostrare altro

Abbiamo bisogno del tuo consenso

Meteoprog e i nostri fornitori di servizi possono memorizzare e accedere a dati personali come cookie, identificatori di dispositivi o altre tecnologie simili sul tuo dispositivo e possono elaborare tali dati per personalizzare i contenuti e gli annunci, nonché fornire funzionalità dei social media e analizzarne il traffico.

  • Archiviare e/o accedere alle informazioni sul tuo dispositivo

    Cookie, identificatori di dispositivi o altre informazioni possono essere memorizzati o resi accessibili sul tuo dispositivo per le finalità sopra indicate.

  • Annunci e contenuti personalizzati, misurazione di annunci e contenuti, approfondimenti sul pubblico e sviluppo di prodotti

    Gli annunci e i contenuti possono essere personalizzati in base a un profilo. È possibile aggiungere più dati per personalizzare meglio annunci e contenuti. È possibile misurare il rendimento degli annunci e dei contenuti. È possibile ricavare informazioni sul pubblico che ha visto gli annunci e i contenuti. Tali dati possono essere utilizzati per sviluppare o migliorare l'esperienza, i sistemi e il software dell'utente.

Cliccando su “Accetto”, acconsenti all'uso di cookie, identificatori di dispositivo, web beacon o altre tecnologie simili. Puoi modificare le impostazioni nel browser del tuo dispositivo.

Per determinati scopi, è possibile fare affidamento su interessi legali, piuttosto che sul consenso. Puoi approfondire questo argomento consultando la nostra Informativa sulla privacy e sui cookie.